This demonstration page uses our WeatherBlox Daily Observations layout. Learn more.

Left ArrowRight Arrow

38.83388, -104.82136

Hourly Observations for March 26, 2018

Temp ( °F °C ) Dew Point ( °F °C ) Humidity (%) Winds ( mph kmh ) Pressure ( in mb ) Visibility ( mi km ) Precip ( " mm )
12:58 am 00:58 Clear 37 3 31 -0.5 78 78 N 13 20 29.34 994 10 16 0.00 0.00
5:58 am 05:58 Clear 33 0.4 29 -1.4 88 88 NNW 5 7 29.41 996 10 16 0.00 0.00
6:58 am 06:58 Sunny 32 -0.2 29 -1.5 91 91 Calm 29.43 997 10 16 0.00 0.00
7:58 am 07:58 Partly Cloudy 31 -0.6 30 -1.3 95 95 N 3 6 29.48 998 8 13 0.00 0.00
8:03 am 08:03 Mostly Cloudy 32 0 30 -1 93 93 Calm 29.47 998 9 14 0.00 0.00
8:33 am 08:33 Mostly Cloudy 32 0 30 -1 93 93 N 3 6 29.49 999 8 13 0.00 0.00
8:58 am 08:58 Mostly Cloudy 33 0.3 30 -1.2 90 90 Calm 29.49 999 8 13 0.00 0.00
9:53 am 09:53 Cloudy 34 1 30 -1 87 87 Calm 29.50 999 8 13 0.00 0.00
9:58 am 09:58 Cloudy 34 0.9 31 -0.5 90 90 Calm 29.50 999 8 13 0.00 0.00
10:58 am 10:58 Mostly Cloudy 39 3.9 33 0.4 78 78 E 5 7 29.50 999 10 16 0.00 0.00
11:23 am 11:23 Mostly Cloudy 41 5 34 1 76 76 SE 13 20 29.50 999 10 16 0.00 0.00
11:38 am 11:38 Partly Cloudy 45 7 34 1 66 66 SSE 9 15 29.46 998 10 16 0.00 0.00
11:58 am 11:58 Sunny 43 6.3 32 0.1 65 65 SSE 12 19 29.48 998 10 16 0.00 0.00
12:58 pm 12:58 Sunny 46 7.8 31 -0.6 56 56 SE 9 15 29.48 998 10 16 0.00 0.00
1:58 pm 13:58 Sunny 47 8.3 29 -1.8 49 49 SE 15 24 29.46 998 10 16 0.00 0.00
2:38 pm 14:38 Sunny 50 10 27 -3 40 40 SSE 15 24 29.43 997 10 16 0.00 0.00
2:58 pm 14:58 Partly Cloudy 51 10.6 25 -3.9 36 36 SE 16 26 29.42 996 10 16 0.00 0.00
3:58 pm 15:58 Sunny 52 11.3 20 -6.8 28 28 SE 20 31 29.37 995 10 16 0.00 0.00
4:58 pm 16:58 Partly Cloudy 50 10.1 22 -5.7 33 33 ESE 20 31 29.43 997 10 16 0.00 0.00
5:45 pm 17:45 Mostly Cloudy 45 7 28 -2 53 53 N 16 26 29.54 1000 10 16 0.00 0.00
5:58 pm 17:58 Mostly Cloudy 43 6.1 29 -1.5 59 59 NNW 14 22 29.56 1001 10 16 0.00 0.00
6:58 pm 18:58 Mostly Cloudy 41 4.8 32 0.1 72 72 NNW 12 19 29.60 1002 10 16 0.00 0.00
7:34 pm 19:34 Mostly Cloudy with Light Rain 39 4 32 0 75 75 NNW 10 17 29.63 1003 10 16 0.00 0.00
7:58 pm 19:58 Mostly Cloudy with Light Rain 38 3.3 35 1.4 88 88 N 10 17 29.67 1005 10 16 0.00 0.00
8:23 pm 20:23 Cloudy with Light Rain 37 3 34 1 87 87 NW 12 19 29.69 1005 4 6 0.00 0.00
8:38 pm 20:38 Cloudy with Light Rain 37 3 34 1 87 87 NNW 12 19 29.68 1005 4 6 0.00 0.00
8:58 pm 20:58 Cloudy with Light Rain 35 1.5 33 0.4 92 92 NNW 16 26 29.71 1006 4 6 0.02 0.51
9:08 pm 21:08 Cloudy with Rain 34 1 32 0 93 93 NNW 17 28 29.72 1006 3 4 0.00 0.00
9:48 pm 21:48 Cloudy with Light Snow 32 0 32 0 100 100 NNW 16 26 29.75 1008 1 2 0.00 0.00
9:58 pm 21:58 Cloudy with Light Snow 33 0.3 31 -0.3 96 96 NNW 15 24 29.76 1008 1 2 0.03 0.76
10:03 pm 22:03 Cloudy with Snow 32 0 32 0 100 100 N 17 28 29.76 1008 5 8 0.00 0.00
10:28 pm 22:28 Cloudy with Light Snow 32 0 30 -1 93 93 NNW 17 28 29.78 1009 5 8 0.00 0.00
10:53 pm 22:53 Cloudy with Light Snow 30 -1 30 -1 100 100 NNW 15 24 29.79 1009 5 8 0.00 0.00
10:58 pm 22:58 Cloudy with Light Snow 31 -0.7 30 -0.9 99 99 NNW 15 24 29.76 1008 5 8 0.02 0.51
11:38 pm 23:38 Mostly Cloudy with Light Snow 30 -1 27 -3 86 86 NW 20 31 29.75 1008 2 4 0.00 0.00
11:58 pm 23:58 Windy with Snow Likely 30 -1.3 26 -3.3 86 86 NW 20 31 29.75 1008 7 11 0.00 0.00

Powered by AerisWeather